User: anonymous   Login
Location: Prague
(50.0830°N, 14.4670°E)
Time: 23:14:25
(UTC+01:00)
Language:

AO-92 - Orbit

View from above orbital plane
View from above orbital plane
View from above satellite
View from above satellite

Ground track
Ground track

The orbit data is extracted from the following two-line orbital elements,

1 43137U 18004AC  21338.86173936  .00002827  00000-0  11211-3 0  9999
2 43137  97.3923  51.0879 0007758 340.5560  19.5382 15.26182262216645
Epoch (UTC): 04 December 2021 20:40:54
Eccentricity: 0.0007758
inclination: 97.3923°
perigee height: 482 km
apogee height: 492 km
right ascension of ascending node: 51.0879°
argument of perigee: 340.5560°
revolutions per day: 15.26182262
mean anomaly at epoch: 19.5382°
orbit number at epoch: 21664

The dashed part of the orbit path shows where the satellite is in the earth's shadow,  

DLR